Wisconsin Rapids, WI

4:40 AM CST on November 21, 2019 (GMT -0600)
Alexander Field South Wood County

Weather History for KISW - October, 2019

Change the Weather History Date:

Tuesday, October 22, 2019

  Actual Average Record
Temperature  
Mean Temperature 44 °F -  
Max Temperature 48 °F 56 °F 78 °F (1953)
Min Temperature 41 °F 33 °F 19 °F (1982)
Degree Days  
Heating Degree Days 20    
Moisture  
Dew Point 39 °F    
Average Humidity 87    
Maximum Humidity 93    
Minimum Humidity 74    
Precipitation  
Precipitation 0.29 in - - ()
Sea Level Pressure  
Sea Level Pressure 29.39 in    
Wind  
Wind Speed 11 mph (WSW)    
Max Wind Speed 20 mph    
Max Gust Speed 30 mph    
Visibility 8 miles    
Events Rain    
Averages and records for this station are not official NWS values.
T = Trace of Precipitation, MM = Missing Value Source: NWS Daily Summary

Daily Weather History Graph

Daily Weather History Graph

Search for Another Location

Airport or City:

Astronomy

Oct. 22, 2019 Rise Set
Actual Time 7:23 AM CDT 6:03 PM CDT
Civil Twilight 6:53 AM CDT 6:33 PM CDT
Nautical Twilight 6:19 AM CDT 7:07 PM CDT
Astronomical Twilight 5:45 AM CDT 7:40 PM CDT
Moon 12:13 AM CDT (10/22) 3:30 PM CDT (10/22)
Length of Visible Light 11h 40m
Length of Day
10h 40m
Last Quarter, 37% of the Moon is Illuminated
Oct 22
Last Quarter
Oct 27
New
Nov 4
First Quarter
Nov 12
Full
Nov 19
Last Quarter

Hourly Weather History & Observations

Time (CDT) Temp. Windchill Dew Point Humidity Pressure Visibility Wind Dir Wind Speed Gust Speed Precip Events Conditions
12:54 AM 48.9 °F - 41.0 °F 74% 29.25 in 10.0 mi SSE 9.2 mph - N/A   Overcast
1:31 AM 46.9 °F - 42.1 °F 83% 29.23 in 9.0 mi SSE 10.4 mph - 0.00 in Rain Light Rain
1:54 AM 46.9 °F - 42.1 °F 83% 29.23 in 8.0 mi South 12.7 mph 24.2 mph 0.00 in Rain Light Rain
2:01 AM 46.0 °F 40.2 °F 42.1 °F 86% 29.22 in 8.0 mi SW 12.7 mph 23.0 mph 0.01 in Rain Light Rain
2:12 AM 45.0 °F 41.2 °F 41.0 °F 86% 29.22 in 10.0 mi SSW 6.9 mph - 0.01 in Rain Light Rain
2:54 AM 44.1 °F 39.0 °F 41.0 °F 89% 29.21 in 8.0 mi South 9.2 mph - 0.04 in Rain Light Rain
3:54 AM 44.1 °F 40.1 °F 39.9 °F 85% 29.19 in 8.0 mi SSE 6.9 mph - 0.06 in Rain Light Rain
4:11 AM 43.0 °F 39.5 °F 41.0 °F 93% 29.18 in 8.0 mi South 5.8 mph - 0.01 in Rain Light Rain
4:27 AM 43.0 °F 37.7 °F 39.0 °F 86% 29.19 in 4.0 mi WSW 9.2 mph - 0.04 in Rain Rain
4:54 AM 43.0 °F 38.2 °F 39.9 °F 89% 29.19 in 9.0 mi SW 8.1 mph - 0.06 in Rain Light Rain
5:12 AM 43.0 °F 37.7 °F 39.9 °F 89% 29.19 in 10.0 mi SSW 9.2 mph - 0.00 in Rain Light Rain
5:42 AM 43.0 °F 36.8 °F 39.9 °F 89% 29.20 in 6.0 mi SW 11.5 mph - 0.02 in Rain Light Rain
5:54 AM 43.0 °F 38.2 °F 41.0 °F 93% 29.22 in 9.0 mi WSW 8.1 mph - 0.02 in Rain Light Rain
6:54 AM 42.1 °F 36.1 °F 39.9 °F 92% 29.24 in 10.0 mi West 10.4 mph - 0.01 in Rain Light Rain
7:02 AM 42.1 °F 36.1 °F 39.0 °F 89% 29.23 in 10.0 mi WSW 10.4 mph - 0.00 in   Overcast
7:19 AM 42.1 °F 36.1 °F 39.0 °F 89% 29.24 in 10.0 mi West 10.4 mph - 0.00 in   Overcast
7:46 AM 42.1 °F 37.7 °F 39.9 °F 92% 29.25 in 3.0 mi WSW 6.9 mph - 0.00 in Rain Light Rain
7:54 AM 42.1 °F 37.7 °F 39.9 °F 92% 29.26 in 2.5 mi WSW 6.9 mph - 0.00 in Rain Light Rain
8:25 AM 43.0 °F 38.2 °F 41.0 °F 93% 29.26 in 2.5 mi SW 8.1 mph - 0.01 in Rain Light Rain
8:31 AM 43.0 °F 37.2 °F 41.0 °F 93% 29.26 in 3.0 mi WSW 10.4 mph - 0.01 in   Overcast
8:54 AM 44.1 °F 37.4 °F 41.0 °F 89% 29.29 in 10.0 mi West 13.8 mph 25.3 mph 0.02 in   Overcast
9:05 AM 44.1 °F 37.4 °F 39.9 °F 85% 29.29 in 10.0 mi West 13.8 mph 26.5 mph N/A   Overcast
9:54 AM 43.0 °F 35.1 °F 39.0 °F 86% 29.33 in 9.0 mi West 17.3 mph 28.8 mph N/A   Overcast
10:21 AM 43.0 °F 36.0 °F 39.9 °F 89% 29.32 in 4.0 mi West 13.8 mph 23.0 mph 0.00 in Rain Light Rain
10:54 AM 43.0 °F 36.8 °F 39.9 °F 89% 29.36 in 10.0 mi West 11.5 mph 24.2 mph 0.00 in   Overcast
11:46 AM 44.1 °F 38.1 °F 39.9 °F 85% 29.37 in 10.0 mi West 11.5 mph 26.5 mph 0.00 in   Overcast
11:54 AM 44.1 °F 38.1 °F 39.9 °F 85% 29.39 in 10.0 mi West 11.5 mph 23.0 mph 0.00 in   Overcast
12:02 PM 44.1 °F 35.9 °F 39.0 °F 82% 29.38 in 10.0 mi West 19.6 mph 29.9 mph 0.00 in Rain Light Rain
12:54 PM 43.0 °F 36.0 °F 39.0 °F 86% 29.41 in 8.0 mi West 13.8 mph 28.8 mph 0.00 in Rain Light Rain
1:28 PM 43.0 °F 35.1 °F 39.0 °F 86% 29.41 in 4.0 mi West 17.3 mph 27.6 mph 0.01 in Rain Light Rain
1:38 PM 43.0 °F 34.8 °F 39.0 °F 86% 29.41 in 6.0 mi WSW 18.4 mph 27.6 mph 0.01 in Rain Light Rain
1:54 PM 43.0 °F 35.4 °F 39.0 °F 86% 29.44 in 6.0 mi WSW 16.1 mph 26.5 mph 0.01 in Rain Light Rain
2:12 PM 42.1 °F 34.9 °F 39.0 °F 89% 29.43 in 5.0 mi West 13.8 mph 25.3 mph 0.00 in Rain Light Rain
2:16 PM 42.1 °F 34.9 °F 39.0 °F 89% 29.43 in 6.0 mi West 13.8 mph 25.3 mph 0.00 in Rain Light Rain
2:24 PM 42.1 °F 34.5 °F 39.0 °F 89% 29.44 in 5.0 mi West 15.0 mph 26.5 mph 0.01 in Rain Light Rain
2:54 PM 42.1 °F 35.2 °F 39.0 °F 89% 29.47 in 10.0 mi West 12.7 mph 28.8 mph 0.01 in Rain Light Rain
3:28 PM 42.1 °F 34.9 °F 39.0 °F 89% 29.47 in 9.0 mi WSW 13.8 mph 23.0 mph 0.00 in Rain Light Rain
3:50 PM 42.8 °F 35.8 °F 39.2 °F 87% 29.48 in 7.0 mi WSW 13.8 mph 23.0 mph 0.01 in Rain Light Rain
3:54 PM 42.1 °F 34.5 °F 39.0 °F 89% 29.51 in 6.0 mi West 15.0 mph 23.0 mph 0.01 in Rain Light Rain
4:31 PM 42.1 °F 34.5 °F 37.9 °F 85% 29.50 in 10.0 mi West 15.0 mph 25.3 mph 0.01 in Rain Light Rain
4:54 PM 42.1 °F 35.2 °F 37.0 °F 82% 29.54 in 10.0 mi WSW 12.7 mph 23.0 mph 0.01 in   Overcast
5:54 PM 42.1 °F 34.9 °F 37.0 °F 82% 29.57 in 10.0 mi West 13.8 mph 25.3 mph 0.00 in Rain Light Rain
6:40 PM 41.0 °F 33.9 °F 37.9 °F 89% 29.57 in 6.0 mi West 12.7 mph 21.9 mph 0.01 in Rain Light Rain
6:42 PM 41.0 °F 33.5 °F 37.9 °F 89% 29.57 in 7.0 mi West 13.8 mph 21.9 mph 0.01 in Rain Light Rain
6:51 PM 41.0 °F 35.2 °F 37.4 °F 87% 29.57 in 10.0 mi West 9.2 mph 24.2 mph 0.01 in Rain Light Rain
6:54 PM 41.0 °F 33.5 °F 37.9 °F 89% 29.60 in 10.0 mi West 13.8 mph 24.2 mph 0.01 in Rain Light Rain
7:54 PM 41.0 °F 33.5 °F 37.0 °F 86% 29.62 in 10.0 mi West 13.8 mph 23.0 mph 0.01 in Rain Light Rain
8:15 PM 41.0 °F 35.2 °F 37.0 °F 86% 29.59 in 10.0 mi West 9.2 mph 20.7 mph 0.00 in   Overcast
8:35 PM 41.0 °F 33.9 °F 36.0 °F 82% 29.60 in 10.0 mi West 12.7 mph 21.9 mph 0.00 in   Overcast
9:41 PM 41.0 °F 34.3 °F 36.0 °F 82% 29.62 in 10.0 mi West 11.5 mph - 0.00 in Rain Light Rain
9:54 PM 42.1 °F 36.6 °F 36.0 °F 79% 29.64 in 10.0 mi West 9.2 mph 24.2 mph 0.00 in   Overcast
10:54 PM 42.1 °F 35.7 °F 36.0 °F 79% 29.65 in 8.0 mi WNW 11.5 mph 20.7 mph 0.00 in Rain Light Rain
11:24 PM 41.0 °F 34.7 °F 37.0 °F 86% 29.63 in 10.0 mi West 10.4 mph - 0.02 in   Overcast
11:54 PM 41.0 °F 37.1 °F 36.0 °F 82% 29.66 in 10.0 mi West 5.8 mph - 0.02 in   Overcast